Location: Newark
(48.6767°N, 1.3256°E)
Time: 12:48:15
(UTC+00:00)

ISS - Pass Details

Date: 22 November 2019
Orbit: 411 x 421 km, 51.6° (Epoch: 15 December)

Event Time Altitude Azimuth Distance (km) Brightness Sun altitude
Rises 17:22:59 0° 187° (S) 2,344 0.4 -12.2°
Reaches altitude 10° 17:26:34 10° 146° (SSE) 1,492 -1.1 -12.7°
Maximum altitude 17:27:19 11° 133° (SE) 1,459 -1.3 -12.9°
Enters shadow 17:27:42 10° 127° (SE) 1,469 -1.4 -12.9°
